Location: Edinburgh
(55.9500°N, 3.1600°W)
Time: 04:19:55
(UTC+01:00)

Envisat - Pass Details

Date: 12 October 2017
Orbit: 764 x 766 km, 98.2° (Epoch: 18 October)

Event Time Altitude Azimuth Distance (km) Brightness Sun altitude
Exits shadow 19:53:06 14° 132° (SE) 2,014 4.7 -13.9°
Maximum altitude 19:57:08 45° 64° (ENE) 1,041 3.3 -14.5°
Drops below altitude 10° 20:01:58 10° 353° (N) 2,317 5.7 -15.1°
Sets 20:04:21 0° 347° (NNW) 3,247 6.5 -15.5°
